Weather History for Corpus Christi, TX

Change the Weather History Date:

Thursday, December 22, 2011

  Actual Average Record
Temperature  
Mean Temperature 59 °F 57 °F  
Max Temperature 71 °F 67 °F 84 °F (1988)
Min Temperature 47 °F 48 °F 20 °F (1989)
Degree Days  
Heating Degree Days 6 9  
Month to date heating degree days 132 168  
Since 1 July heating degree days 226 269  
Cooling Degree Days 0 1  
Month to date cooling degree days 49 40  
Year to date cooling degree days 4126 3515  
Growing Degree Days 10 (Base 50)    
Moisture  
Dew Point 48 °F    
Average Humidity 65    
Maximum Humidity 89    
Minimum Humidity 41    
Precipitation  
Precipitation T in 0.06 in 0.65 in (1986)
Month to date precipitation 1.07 1.25  
Year to date precipitation 11.95 31.18  
Snow  
Snow 0.00 in - - ()
Month to date snowfall 0.0  
Since 1 July snowfall 0.0  
Snow Depth 0.00 in    
Sea Level Pressure  
Sea Level Pressure 30.02 in    
Wind  
Wind Speed 8 mph (North)    
Max Wind Speed 24 mph    
Max Gust Speed 28 mph    
Visibility 10 miles    
Events Rain    
T = Trace of Precipitation, MM = Missing Value Source: NWS Daily Summary

Daily Weather History Graph

Daily Weather History Graph

Search for Another Location

Airport:

Trip Planner

Search our weather history database for the weather conditions in past years. The results will help you decide how hot, cold, wet, or windy it might be!

Date:

Astronomy

Dec. 22, 2011 Rise Set
Actual Time 7:17 AM CST 5:40 PM CST
Civil Twilight 6:51 AM CST 6:05 PM CST
Nautical Twilight 6:22 AM CST 6:35 PM CST
Astronomical Twilight 5:53 AM CST 7:03 PM CST
Moon 5:03 AM CST (12/22) 3:51 PM CST (12/22)
Length of Visible Light 11h 14m
Length of Day
10h 23m
Waning Crescent, 5% of the Moon is Illuminated
Dec 22
Waning Crescent
Dec 24
New
Jan 1
First Quarter
Jan 9
Full
Jan 16
Last Quarter

Hourly Weather History & Observations

Time (CST) Temp. Dew Point Humidity Pressure Visibility Wind Dir Wind Speed Gust Speed Precip Events Conditions
12:51 AM 54.0 °F 46.0 °F 75% 29.88 in 10.0 mi North 13.8 mph - 0.00 in Rain Light Rain
1:51 AM 53.1 °F 46.0 °F 77% 29.90 in 10.0 mi NNW 16.1 mph - 0.00 in Rain Light Rain
2:51 AM 51.1 °F 46.9 °F 86% 29.91 in 10.0 mi NNW 15.0 mph - 0.00 in Rain Light Rain
3:39 AM 51.8 °F 46.4 °F 82% 29.89 in 10.0 mi NNE 12.7 mph - 0.00 in Rain Light Rain
3:51 AM 52.0 °F 46.0 °F 80% 29.91 in 10.0 mi North 11.5 mph - 0.00 in Rain Light Rain
4:51 AM 53.1 °F 46.9 °F 80% 29.91 in 10.0 mi NE 3.5 mph - 0.00 in   Overcast
5:45 AM 53.6 °F 48.2 °F 82% 29.95 in 10.0 mi NW 16.1 mph - N/A   Mostly Cloudy
5:51 AM 53.1 °F 46.9 °F 80% 29.96 in 10.0 mi NW 17.3 mph - N/A   Mostly Cloudy
6:40 AM 51.8 °F 48.2 °F 88% 29.99 in 10.0 mi NNW 18.4 mph - N/A   Overcast
6:51 AM 52.0 °F 48.0 °F 86% 30.00 in 10.0 mi NNW 19.6 mph 27.6 mph N/A   Overcast
7:10 AM 51.8 °F 48.2 °F 88% 30.01 in 10.0 mi NNW 11.5 mph - N/A   Overcast
7:41 AM 51.8 °F 48.2 °F 88% 30.03 in 10.0 mi North 9.2 mph - N/A   Overcast
7:51 AM 52.0 °F 48.0 °F 86% 30.04 in 10.0 mi North 6.9 mph - N/A   Overcast
8:51 AM 54.0 °F 48.9 °F 83% 30.06 in 10.0 mi NW 8.1 mph - N/A   Overcast
9:51 AM 57.0 °F 48.9 °F 74% 30.07 in 10.0 mi NNE 3.5 mph - N/A   Mostly Cloudy
10:03 AM 59.0 °F 50.0 °F 72% 30.08 in 10.0 mi Calm Calm - N/A   Scattered Clouds
10:51 AM 62.1 °F 51.1 °F 67% 30.09 in 10.0 mi NW 8.1 mph - N/A   Scattered Clouds
11:51 AM 64.0 °F 51.1 °F 63% 30.08 in 10.0 mi North 6.9 mph - N/A   Scattered Clouds
12:51 PM 66.0 °F 51.1 °F 59% 30.05 in 10.0 mi North 9.2 mph - N/A   Scattered Clouds
1:51 PM 70.0 °F 48.9 °F 47% 30.03 in 10.0 mi North 8.1 mph - N/A   Scattered Clouds
2:51 PM 71.1 °F 48.0 °F 44% 30.02 in 10.0 mi NNE 5.8 mph - N/A   Scattered Clouds
3:51 PM 71.1 °F 46.9 °F 42% 30.03 in 10.0 mi North 5.8 mph - N/A   Clear
4:51 PM 70.0 °F 46.0 °F 42% 30.04 in 10.0 mi NNE 6.9 mph - N/A   Clear
5:51 PM 66.0 °F 46.0 °F 48% 30.06 in 10.0 mi North 3.5 mph - N/A   Clear
6:51 PM 59.0 °F 50.0 °F 72% 30.08 in 10.0 mi ESE 5.8 mph - N/A   Clear
7:51 PM 55.9 °F 48.9 °F 77% 30.09 in 10.0 mi SSE 3.5 mph - N/A   Clear
8:51 PM 55.0 °F 50.0 °F 83% 30.11 in 10.0 mi ESE 3.5 mph - N/A   Clear
9:51 PM 48.9 °F 43.0 °F 80% 30.14 in 10.0 mi Calm Calm - N/A   Clear
10:51 PM 48.9 °F 45.0 °F 86% 30.17 in 10.0 mi Calm Calm - N/A   Clear
11:51 PM 50.0 °F 48.0 °F 93% 30.17 in 10.0 mi Calm Calm - N/A   Clear